Theta_e
314 314 313 315 315 316 316 319 321 323 324 325 328 329 328 329 329 327 328 329 330 327
312 311 311 312 313 314 316 320 320 320 321 322 324 326 327 328 327 329 330 330 329 326
310 310 310 310 311 312 313 317 316 317 316 317 319 321 322 323 326 329 328 327 326 324
308 309 309 308 309 310 312 314 315 316 316 316 315 315 315 317 320 322 323 321 321 322
306 306 307 308 308 309 311 312 314 315 315 316 316 314 314 316 318 319 319 320 319 320
301 301 302 305 306 306 308 310 310 312 314 315 315 314 314 316 318 319 320 319 320 319
300 301 301 302 303 304 306 306 306 308 313 314 314 314 315 316 316 317 321 320 320 319
300 301 301 302 303 304 305 306 307 307 308 311 313 315 313 313 313 315 317 319 321 321
300 301 301 301 301 301 302 303 303 304 306 305 310 308 307 310 310 312 313 315 318 318
301 301 300 301 301 300 300 300 300 301 302 303 304 303 303 305 308 310 312 313 314 314
299 298 299 299 299 299 300 300 301 301 301 302 302 300 299 302 304 306 309 311 312 311
297 296 296 296 295 296 296 299 300 301 300 299 300 299 298 299 303 305 307 310 312 312
295 296 295 294 297 296 296 299 302 301 300 300 299 298 298 299 303 305 307 309 311 307
294 293 293 293 294 293 294 295 296 300 301 301 301 299 297 297 301 305 308 309 310 314
Wind_Speed
7 5 5 6 4 4 4 4 4 3 3 5 7 7 5 4 6 7 9 14 12 9
4 4 4 6 5 4 4 3 4 4 4 3 5 7 8 6 7 7 9 12 11 9
6 7 6 5 7 7 6 4 5 4 3 3 3 4 5 6 7 8 8 8 11 9
7 8 7 7 7 7 6 7 7 6 5 5 4 5 4 6 7 7 8 8 10 13
6 7 7 7 6 6 8 6 7 7 7 6 6 6 6 6 7 9 10 10 10 14
7 7 7 7 7 6 7 7 7 7 8 8 7 6 6 6 7 9 10 10 10 12
7 6 6 7 7 7 7 7 8 8 9 8 7 7 7 7 6 9 10 10 10 11
8 8 8 8 7 7 7 7 7 6 7 7 6 6 7 7 7 8 10 11 12 13
9 9 10 9 8 8 9 9 8 8 8 8 6 10 11 8 7 8 10 11 12 11
10 11 11 10 11 11 10 10 11 11 10 10 9 12 13 13 7 8 10 12 11 8
14 15 15 16 16 16 14 16 15 16 14 11 9 13 13 14 10 9 11 13 13 10
14 18 19 16 14 18 18 18 17 13 13 11 10 13 14 12 8 10 12 12 13 12
17 16 13 15 17 12 14 14 11 13 12 16 10 12 15 13 6 9 9 9 10 15
15 17 16 15 14 17 15 15 16 16 14 12 9 10 15 16 9 8 8 7 6 6
Wind_Direction
177 169 161 162 175 185 186 188 190 224 274 304 309 305 282 251 247 233 234 242 242 230
222 194 192 191 180 190 200 197 181 184 200 244 279 295 299 293 273 252 240 242 239 223
235 222 221 198 205 209 210 205 213 215 205 231 250 270 289 286 286 287 269 248 243 226
233 227 216 213 222 214 208 205 212 213 226 235 250 272 278 274 274 268 262 241 234 234
325 337 319 294 261 229 220 220 220 214 219 226 232 250 267 270 279 280 273 259 234 235
330 325 309 301 296 289 277 260 244 230 222 221 223 229 251 260 273 276 267 264 251 251
271 269 267 269 270 267 259 247 251 245 242 233 229 225 231 247 264 282 271 263 250 243
263 257 255 254 251 255 257 255 245 243 245 251 241 234 226 235 244 266 278 274 265 255
266 260 253 250 245 242 242 242 240 238 228 230 233 233 240 236 240 248 266 270 271 251
289 284 279 268 263 255 245 241 239 235 233 233 229 225 233 238 234 236 248 262 258 259
281 281 280 276 273 273 273 267 256 247 232 230 231 232 240 243 245 236 236 247 253 248
291 293 281 278 284 281 271 264 256 243 230 226 229 225 246 250 247 245 237 237 240 237
294 283 292 292 286 288 292 294 279 248 241 234 223 224 239 247 247 251 244 238 229 219
288 282 277 277 273 272 271 266 259 265 240 222 212 228 239 247 248 243 248 230 208 214